HVDC transfer

From www.emi.ea.govt.nz provided by the Electricity Authority (New Zealand)
Run at: 20240506063011

Parameters
Date range,03 Feb 2023 - 03 Feb 2023
Time scale,Trading period
Show,Average flow (MW)

Period start,Period end,Trading period,Direction,Energy transfer (GWh),Peak flow (MW),Average flow (MW)
03/02/2023 00:00:00,03/02/2023 00:30:00,1,Southward at Benmore,-0.101,-202,-202
03/02/2023 00:30:00,03/02/2023 01:00:00,2,Southward at Benmore,-0.119,-239,-239
03/02/2023 01:00:00,03/02/2023 01:30:00,3,Southward at Benmore,-0.127,-255,-255
03/02/2023 01:30:00,03/02/2023 02:00:00,4,Southward at Benmore,-0.101,-203,-203
03/02/2023 02:00:00,03/02/2023 02:30:00,5,Southward at Benmore,-0.106,-213,-213
03/02/2023 02:30:00,03/02/2023 03:00:00,6,Southward at Benmore,-0.116,-233,-233
03/02/2023 03:00:00,03/02/2023 03:30:00,7,Southward at Benmore,-0.117,-235,-235
03/02/2023 03:30:00,03/02/2023 04:00:00,8,Southward at Benmore,-0.110,-220,-220
03/02/2023 04:00:00,03/02/2023 04:30:00,9,Southward at Benmore,-0.109,-218,-218
03/02/2023 04:30:00,03/02/2023 05:00:00,10,Southward at Benmore,-0.091,-183,-183
03/02/2023 05:00:00,03/02/2023 05:30:00,11,Southward at Benmore,-0.071,-143,-143
03/02/2023 05:30:00,03/02/2023 06:00:00,12,Southward at Benmore,-0.036,-72,-72
03/02/2023 06:00:00,03/02/2023 06:30:00,13,Southward at Benmore,-0.022,-44,-44
03/02/2023 06:30:00,03/02/2023 07:00:00,14,Northward at Haywards,0.034,67,67
03/02/2023 07:00:00,03/02/2023 07:30:00,15,Northward at Haywards,0.040,80,80
03/02/2023 07:30:00,03/02/2023 08:00:00,16,Northward at Haywards,0.073,146,146
03/02/2023 08:00:00,03/02/2023 08:30:00,17,Northward at Haywards,0.093,186,186
03/02/2023 08:30:00,03/02/2023 09:00:00,18,Northward at Haywards,0.101,202,202
03/02/2023 09:00:00,03/02/2023 09:30:00,19,Northward at Haywards,0.115,229,229
03/02/2023 09:30:00,03/02/2023 10:00:00,20,Northward at Haywards,0.103,206,206
03/02/2023 10:00:00,03/02/2023 10:30:00,21,Northward at Haywards,0.115,229,229
03/02/2023 10:30:00,03/02/2023 11:00:00,22,Northward at Haywards,0.127,253,253
03/02/2023 11:00:00,03/02/2023 11:30:00,23,Northward at Haywards,0.137,273,273
03/02/2023 11:30:00,03/02/2023 12:00:00,24,Northward at Haywards,0.136,272,272
03/02/2023 12:00:00,03/02/2023 12:30:00,25,Northward at Haywards,0.138,275,275
03/02/2023 12:30:00,03/02/2023 13:00:00,26,Northward at Haywards,0.133,266,266
03/02/2023 13:00:00,03/02/2023 13:30:00,27,Northward at Haywards,0.107,213,213
03/02/2023 13:30:00,03/02/2023 14:00:00,28,Northward at Haywards,0.120,239,239
03/02/2023 14:00:00,03/02/2023 14:30:00,29,Northward at Haywards,0.111,222,222
03/02/2023 14:30:00,03/02/2023 15:00:00,30,Northward at Haywards,0.106,212,212
03/02/2023 15:00:00,03/02/2023 15:30:00,31,Northward at Haywards,0.098,195,195
03/02/2023 15:30:00,03/02/2023 16:00:00,32,Northward at Haywards,0.118,236,236
03/02/2023 16:00:00,03/02/2023 16:30:00,33,Northward at Haywards,0.110,220,220
03/02/2023 16:30:00,03/02/2023 17:00:00,34,Northward at Haywards,0.090,179,179
03/02/2023 17:00:00,03/02/2023 17:30:00,35,Northward at Haywards,0.076,151,151
03/02/2023 17:30:00,03/02/2023 18:00:00,36,Northward at Haywards,0.068,135,135
03/02/2023 18:00:00,03/02/2023 18:30:00,37,Northward at Haywards,0.046,91,91
03/02/2023 18:30:00,03/02/2023 19:00:00,38,Northward at Haywards,0.018,35,35
03/02/2023 19:00:00,03/02/2023 19:30:00,39,Southward at Benmore,-0.022,-45,-45
03/02/2023 19:30:00,03/02/2023 20:00:00,40,Southward at Benmore,-0.036,-73,-73
03/02/2023 20:00:00,03/02/2023 20:30:00,41,Southward at Benmore,-0.046,-92,-92
03/02/2023 20:30:00,03/02/2023 21:00:00,42,Southward at Benmore,-0.024,-49,-49
03/02/2023 21:00:00,03/02/2023 21:30:00,43,Southward at Benmore,-0.028,-57,-57
03/02/2023 21:30:00,03/02/2023 22:00:00,44,Southward at Benmore,-0.062,-125,-125
03/02/2023 22:00:00,03/02/2023 22:30:00,45,Southward at Benmore,-0.072,-144,-144
03/02/2023 22:30:00,03/02/2023 23:00:00,46,Southward at Benmore,-0.111,-222,-222
03/02/2023 23:00:00,03/02/2023 23:30:00,47,Southward at Benmore,-0.101,-202,-202
03/02/2023 23:30:00,04/02/2023 00:00:00,48,Southward at Benmore,-0.158,-317,-317
